This demonstration page uses our WeatherBlox Daily Observations layout. Learn more.

Left ArrowRight Arrow

34.02893, -84.19858

Hourly Observations for March 25, 2016

Temp ( °F °C ) Dew Point ( °F °C ) Humidity (%) Winds ( mph kmh ) Pressure ( in mb ) Visibility ( mi km ) Precip ( " mm )
12:53 am 00:53 Cloudy 63 17.2 60 15.6 90 90 SSW 9 15 29.80 1009 10 16 0.00 0.00
1:53 am 01:53 Cloudy 63 17.2 59 15 87 87 SW 12 19 29.78 1009 10 16 0.00 0.00
2:48 am 02:48 Cloudy 63 17 57 14 83 83 WSW 10 17 29.77 1008 10 16 0.00 0.00
2:53 am 02:53 Cloudy 62 16.7 58 14.4 86 86 WSW 12 19 29.78 1009 10 16 0.00 0.00
3:11 am 03:11 Cloudy 62 16.7 58 14.4 86 86 WSW 12 19 29.77 1008 10 16 0.00 0.00
3:53 am 03:53 Cloudy 62 16.7 58 14.4 86 86 WSW 8 13 29.78 1008 10 16 0.00 0.00
4:53 am 04:53 Cloudy 61 16.1 59 15 93 93 WNW 9 15 29.78 1008 9 14 0.00 0.00
5:23 am 05:23 Cloudy 61 16.1 57 13.9 87 87 W 9 15 29.77 1008 10 16 0.00 0.00
5:53 am 05:53 Cloudy 60 15.6 57 13.9 90 90 WNW 7 11 29.79 1009 10 16 0.00 0.00
6:53 am 06:53 Cloudy 60 15.6 57 13.9 90 90 WNW 5 7 29.82 1010 10 16 0.00 0.00
7:44 am 07:44 Cloudy 61 16 55 13 83 83 W 6 9 29.83 1010 10 16 0.00 0.00
7:53 am 07:53 Cloudy 60 15.6 56 13.3 86 86 WNW 7 11 29.83 1010 10 16 0.00 0.00
8:53 am 08:53 Cloudy 60 15.6 56 13.3 86 86 WSW 7 11 29.86 1011 10 16 0.00 0.00
9:53 am 09:53 Mostly Cloudy 61 16.1 55 12.8 81 81 W 8 13 29.87 1012 10 16 0.00 0.00
10:53 am 10:53 Partly Cloudy 62 16.7 54 12.2 75 75 W 9 15 29.90 1013 10 16 0.00 0.00
11:53 am 11:53 Partly Cloudy 63 17.2 54 12.2 73 73 NW 8 13 29.91 1013 10 16 0.00 0.00
12:53 pm 12:53 Partly Cloudy 65 18.3 52 11.1 63 63 WNW 7 11 29.91 1013 10 16 0.00 0.00
1:14 pm 13:14 Mostly Cloudy 66 19 54 12 64 64 SW 10 17 29.91 1013 10 16 0.00 0.00
1:53 pm 13:53 Mostly Cloudy 68 20 54 12.2 61 61 SW 7 11 29.91 1013 10 16 0.00 0.00
2:00 pm 14:00 Mostly Cloudy 67 19.4 53 11.7 61 61 WSW 7 11 29.91 1013 10 16 0.00 0.00
2:53 pm 14:53 Mostly Cloudy 69 20.6 52 11.1 55 55 NW 5 7 29.88 1012 10 16 0.00 0.00
3:53 pm 15:53 Cloudy 71 21.7 50 10 47 47 WNW 12 19 29.86 1011 10 16 0.00 0.00
4:53 pm 16:53 Cloudy 72 22.2 48 8.9 43 43 WNW 9 15 29.86 1011 10 16 0.00 0.00
5:53 pm 17:53 Cloudy 72 22.2 47 8.3 41 41 undefined N/A 29.87 1012 10 16 0.00 0.00
6:53 pm 18:53 Cloudy 70 21.1 47 8.3 44 44 NNW 6 9 29.88 1012 10 16 0.00 0.00
7:53 pm 19:53 Cloudy 66 18.9 45 7.2 47 47 NW 7 11 29.91 1013 10 16 0.00 0.00
8:53 pm 20:53 Cloudy 63 17.2 47 8.3 56 56 NNW 8 13 29.93 1014 10 16 0.00 0.00
9:53 pm 21:53 Clear 58 14.4 45 7.2 62 62 N 5 7 29.96 1015 10 16 0.00 0.00
10:53 pm 22:53 Clear 54 12.2 45 7.2 72 72 N 3 6 29.98 1015 10 16 0.00 0.00
11:53 pm 23:53 Clear 54 12.2 45 7.2 72 72 Calm 29.99 1016 10 16 0.00 0.00

Powered by AerisWeather